Weather in Dangriga

Belize     16°58′08″N   88°13′42″W
temp.,
°C
wind,
m/s
gust,
m/s
humid.,
%
clouds,
%
prec.,
mm/h
press.,
hPa
HPBL,
m
26 january, tue
tue2600:00+26ese49879 0.0 1011615
03:00+25ese49901 0.1 1010605
06:00+26ese59894 0.3 1011635
09:00+26se58820 0.0 1012683
12:00+26ese457812 0.0 1012556
15:00+27ese36736 0.0 1009584
18:00+26e48893 0.0 1010559
21:00+26e48870 0.1 1011404
27 january, wed
wed2700:00+26e49901 0.1 1011517
03:00+26ese510882 0.0 1011561
06:00+25ese49871 0.0 1012526
09:00+26se57821 0.0 1015757
12:00+26ese35731 0.0 1014526
15:00+27ene45720 0.0 1013789
18:00+25ene47840 0.0 1014587
21:00+25ne35860 0.0 1017404
28 january, thu
thu2800:00+25ne24883 0.3 1017353
03:00+24nnw23892 1.8 1016294
06:00+23nw349318 2.3 1018133
09:00+24nw34881 0.3 1020210
12:00+25ne598629 3.1 1019757
15:00+25ne798489 2.9 1018849
18:00+25ne588069 3.2 1018723
21:00+25ne688197 0.1 1019934
29 january, fri
fri2900:00+24ne478461 0.2 1019749
03:00+24ne46821 0.2 1017817
06:00+23nnw458623 0.8 1018426
09:00+22nw579344 0.9 1020324
12:00+23nnw679163 5.4 1019573
15:00+23nnw469081 4.0 1016441
18:00+24nne7108882 8.5 1016725
21:00+24nne8118652 3.9 1018845
30 january, sat
sat3000:00+23nne7108476 4.6 1017797
03:00+23nne688299 0.2 1015797
06:00+23ne688499 1.2 1015700
09:00+24ene6883100 0.6 1018780
12:00+25ene667063 1.0 1016936
15:00+25ne346669 0.0 1014915
18:00+24ne347463 0.0 1014577
21:00+23ne24815 0.0 1015623